Back to catalog

STARLINK-6377

AliveCommunicationsVLEO
NORAD 57341·PAYLOAD·🇺🇸 United States

Launched Jul 16, 2023 from Cape Canaveral Space Force Station

Loading…

Next Passes (next 24 hours)

TLE

FreshSource: CelesTrak SupGP

Epoch: Sep 14, 2026, 22:16 UTC

1 57341C 23099P   26257.92826389  .00023712  00000+0  85912-3 0  2571
2 57341  43.0016 267.0395 0001751 268.2793 271.0989 15.27555730    16

Track STARLINK-6377 in real time with AllMySat

Download on the App Store